TimeCDT,TemperatureF,Dew PointF,Humidity,Sea Level PressureIn,VisibilityMPH,Wind Direction,Wind SpeedMPH,Gust SpeedMPH,PrecipitationIn,Events,Conditions,WindDirDegrees,DateUTC
12:53 AM,57.9,51.1,78,30.19,10.0,South,4.6,-,N/A,,Clear,180,2013-03-30 05:53:00
1:53 AM,57.0,53.1,87,30.18,10.0,SSE,3.5,-,N/A,,Clear,160,2013-03-30 06:53:00
2:53 AM,53.1,50.0,89,30.17,10.0,Calm,Calm,-,N/A,,Clear,0,2013-03-30 07:53:00
3:53 AM,52.0,50.0,93,30.16,10.0,Calm,Calm,-,N/A,,Clear,0,2013-03-30 08:53:00
4:53 AM,51.1,50.0,96,30.15,7.0,ENE,3.5,-,N/A,,Clear,70,2013-03-30 09:53:00
5:53 AM,52.0,51.1,97,30.14,5.0,Calm,Calm,-,N/A,,Clear,0,2013-03-30 10:53:00
6:53 AM,51.1,50.0,96,30.15,3.0,NE,3.5,-,N/A,,Clear,50,2013-03-30 11:53:00
7:53 AM,54.0,52.0,93,30.16,4.0,Calm,Calm,-,N/A,,Clear,0,2013-03-30 12:53:00
8:53 AM,60.1,55.9,86,30.17,7.0,South,4.6,-,N/A,,Clear,180,2013-03-30 13:53:00
9:53 AM,68.0,55.9,65,30.18,10.0,South,8.1,-,N/A,,Clear,190,2013-03-30 14:53:00
10:53 AM,70.0,57.0,63,30.18,10.0,SW,11.5,-,N/A,,Scattered Clouds,230,2013-03-30 15:53:00
11:53 AM,71.1,55.9,59,30.16,10.0,WSW,11.5,-,N/A,,Scattered Clouds,240,2013-03-30 16:53:00
12:53 PM,72.0,55.0,55,30.14,10.0,SSW,11.5,-,N/A,,Mostly Cloudy,210,2013-03-30 17:53:00
1:53 PM,72.0,55.0,55,30.08,10.0,SSE,16.1,-,0.00,Rain,Light Rain,150,2013-03-30 18:53:00
2:53 PM,75.0,53.1,46,30.08,10.0,South,13.8,-,0.00,,Clear,190,2013-03-30 19:53:00
3:53 PM,77.0,53.1,43,30.04,10.0,SSW,13.8,24.2,N/A,,Clear,200,2013-03-30 20:53:00
4:53 PM,73.9,53.1,48,30.05,10.0,SW,13.8,-,N/A,,Mostly Cloudy,220,2013-03-30 21:53:00
5:53 PM,73.0,53.1,49,30.04,10.0,SW,16.1,-,N/A,,Partly Cloudy,220,2013-03-30 22:53:00
6:53 PM,70.0,54.0,57,30.04,10.0,SSW,10.4,-,N/A,,Clear,210,2013-03-30 23:53:00
7:53 PM,66.9,55.0,66,30.03,10.0,SSW,10.4,18.4,N/A,,Clear,200,2013-03-31 00:53:00
8:53 PM,66.0,57.0,73,30.03,10.0,SSW,12.7,20.7,N/A,,Clear,200,2013-03-31 01:53:00
9:53 PM,64.9,57.9,78,30.06,10.0,SW,9.2,-,N/A,,Clear,220,2013-03-31 02:53:00
10:53 PM,64.0,57.9,80,30.06,10.0,South,6.9,-,N/A,,Clear,180,2013-03-31 03:53:00
11:53 PM,62.1,57.9,86,30.05,10.0,South,6.9,-,N/A,,Partly Cloudy,180,2013-03-31 04:53:00